Weather History for Abilene, TX

Change the Weather History Date:

Thursday, October 11, 2012

  Actual Average Record
Temperature  
Mean Temperature 74 °F 67 °F  
Max Temperature 86 °F 79 °F 97 °F (1979)
Min Temperature 61 °F 56 °F 40 °F (1946)
Degree Days  
Heating Degree Days 0 2  
Month to date heating degree days 51 18  
Since 1 July heating degree days 57 29  
Cooling Degree Days 9 4  
Month to date cooling degree days 31 60  
Year to date cooling degree days 2904 2331  
Growing Degree Days 22 (Base 50)    
Moisture  
Dew Point 64 °F    
Average Humidity 76    
Maximum Humidity 100    
Minimum Humidity 51    
Precipitation  
Precipitation 0.00 in 0.10 in 1.55 in (2007)
Month to date precipitation 0.00 1.00  
Year to date precipitation 22.14 20.20  
Sea Level Pressure  
Sea Level Pressure 30.05 in    
Wind  
Wind Speed 8 mph (South)    
Max Wind Speed 18 mph    
Max Gust Speed 24 mph    
Visibility 5 miles    
Events Fog    
T = Trace of Precipitation, MM = Missing Value Source: NWS Daily Summary

Daily Weather History Graph

Daily Weather History Graph

Search for Another Location

Airport:

Trip Planner

Search our weather history database for the weather conditions in past years. The results will help you decide how hot, cold, wet, or windy it might be!

Date:

Astronomy

Oct. 11, 2012 Rise Set
Actual Time 7:39 AM CDT 7:10 PM CDT
Civil Twilight 7:15 AM CDT 7:34 PM CDT
Nautical Twilight 6:46 AM CDT 8:03 PM CDT
Astronomical Twilight 6:18 AM CDT 8:31 PM CDT
Moon 3:33 AM CDT (10/11) 4:36 PM CDT (10/11)
Length of Visible Light 12h 19m
Length of Day
11h 30m
Waning Crescent, 18% of the Moon is Illuminated
Oct 11
Waning Crescent
Oct 15
New
Oct 21
First Quarter
Oct 29
Full
Nov 6
Last Quarter

Hourly Weather History & Observations

Time (CDT) Temp. Heat Index Dew Point Humidity Pressure Visibility Wind Dir Wind Speed Gust Speed Precip Events Conditions
12:52 AM 61.0 °F - 61.0 °F 100% 30.08 in 0.8 mi Calm Calm - N/A   Mist
1:52 AM 61.0 °F - 61.0 °F 100% 30.07 in 0.8 mi Calm Calm - N/A   Mist
2:52 AM 61.0 °F - 61.0 °F 100% 30.06 in 0.5 mi Calm Calm - N/A Fog Fog
3:52 AM 61.0 °F - 61.0 °F 100% 30.04 in 0.5 mi Calm Calm - N/A Fog Fog
4:52 AM 61.0 °F - 61.0 °F 100% 30.04 in 0.5 mi North 4.6 mph - N/A Fog Fog
5:52 AM 62.1 °F - 62.1 °F 100% 30.05 in 0.5 mi Calm Calm - N/A Fog Fog
6:52 AM 62.1 °F - 62.1 °F 100% 30.06 in 0.5 mi North 3.5 mph - N/A Fog Fog
7:52 AM 62.1 °F - 62.1 °F 100% 30.07 in 0.8 mi Calm Calm - N/A   Mist
8:52 AM 63.0 °F - 63.0 °F 100% 30.08 in 0.5 mi Calm Calm - N/A Fog Fog
9:52 AM 66.9 °F - 66.0 °F 97% 30.09 in 2.0 mi Calm Calm - N/A   Overcast
10:28 AM 71.6 °F - 68.0 °F 88% 30.13 in 6.0 mi SSE 6.9 mph - N/A   Overcast
10:52 AM 73.0 °F - 66.9 °F 81% 30.08 in 10.0 mi SSE 9.2 mph - N/A   Overcast
11:52 AM 77.0 °F - 66.9 °F 71% 30.07 in 10.0 mi South 12.7 mph - N/A   Overcast
12:40 PM 78.8 °F - 66.2 °F 65% 30.12 in 10.0 mi South 9.2 mph 18.4 mph N/A   Overcast
12:52 PM 79.0 °F - 66.9 °F 66% 30.06 in 10.0 mi South 11.5 mph - N/A   Overcast
1:52 PM 80.1 °F 82.7 °F 68.0 °F 67% 30.04 in 10.0 mi SSW 11.5 mph - N/A   Overcast
3:52 PM 84.9 °F 87.1 °F 66.0 °F 53% 29.99 in 10.0 mi SSW 15.0 mph 19.6 mph N/A   Mostly Cloudy
4:52 PM 84.9 °F 86.6 °F 64.9 °F 51% 29.97 in 10.0 mi SSW 12.7 mph 20.7 mph N/A   Scattered Clouds
6:52 PM 82.0 °F 83.4 °F 64.0 °F 54% 29.96 in 10.0 mi South 8.1 mph - N/A   Clear
8:52 PM 75.0 °F - 66.0 °F 73% 30.00 in 10.0 mi SE 8.1 mph - N/A   Clear